Regional Weather Roundup
Issued by NWS New Orleans/Baton Rouge, LA

Home | Current Version | Previous Version | Text Only | Print | Product List | Glossary On
Versions: 1 2 3 4 5 6 7 8 9 10 11 12 13 14 15 16 17 18 19 20 21 22 23 24 25 26 27 28 29 30 31 32 33 34 35 36 37 38 39 40 41 42 43 44 45 46 47 48 49 50
667
ASUS44 KLIX 280505
RWRLIX
NEW ORLEANS REGIONAL WEATHER ROUNDUP
NATIONAL WEATHER SERVICE NEW ORLEANS LA
1100 PM CST TUE JAN 27 2015

NOTE: "FAIR" INDICATES FEW OR NO CLOUDS BELOW 12,000 FEET WITH NO
      SIGNIFICANT WEATHER AND/OR OBSTRUCTIONS TO VISIBILITY.
      SKY/WX - SKY CONDITION AND SIGNIFICANT WEATHER.
      TMP - AIR TEMPERATURE.     DP    - DEWPOINT TEMPERATURE.
      RH  - RELATIVE HUMIDITY.   PRES  - PRESSURE.
      HI  - HEAT INDEX.          WCI   - WIND CHILL INDEX.

*  THESE STATIONS ARE NOT NWS OR FAA STATIONS AND ARE NOT UNDER
   NWS QUALITY CONTROL.

LAZ038-040-048-061>063-065>067-069-280600-
SOUTHEAST LOUISIANA

CITY           SKY/WX    TMP DP  RH WIND       PRES   REMARKS
N.O. AUDUBON     N/A     53  49  86 MISG        N/A
N.O. INTL ARPT CLEAR     56  40  55 N5        30.17R
N.O. LAKEFRONT CLEAR     57  46  66 N10       30.17R
N.O. DOWNTOWN*   N/A     61  36  39 N6        30.17R
SLIDELL        CLEAR     45  41  86 N3        30.16R
BATON ROUGE    CLEAR     47  39  74 N5        30.17R
BOOTHVILLE     CLEAR     54  52  93 W7        30.16R
BELLE CHASSE   CLEAR     45  40  82 CALM      30.16R
BOGALUSA*        N/A     42  36  79 N3        30.19R
GALLIANO*      CLEAR     55  51  86 MISG      30.17R
NEW ROADS*       N/A     49  38  67 N3        30.18R
GONZALES*        N/A     50  42  74 CALM      30.17R
HAMMOND*       CLEAR     46  37  71 N3        30.19R
HOUMA*         CLEAR     47  47  98 CALM      30.17R
PORT FOURCHON* CLEAR     57  52  82 NW5       30.20R

$$

MSZ070-080>082-280600-
SOUTHERN MISSISSIPPI

CITY           SKY/WX    TMP DP  RH WIND       PRES   REMARKS
MCCOMB         CLEAR     48  35  60 NE5       30.18R
GULFPORT       CLEAR     51  36  56 N8        30.16R
BILOXI         CLEAR     54  35  48 VRB3      30.16R
PASCAGOULA     CLEAR     48  38  68 N7        30.16R

$$

COASTAL OBSERVATIONS
LAKE AND NEARSHORE STATIONS

STATION/POSITION TIME  TEMP    WIND        PRES    WAVE
                       AIR SEA DIR/SP/G            HT/PER
                 (UTC) (F)     (DEG/KT/KT) (MB)    (FT/S)
PASCAGOULA       0500   54     350/  7/  7 1020.4
WAVELAND YACHT   0500   57     350/  5/  8 1020.5
GRAND ISLE       0500   59 63  290/  9/ 11 1021.6
SOUTHWEST PASS   0500   60 47  280/ 12/ 14 1021.2
NEW CANAL        0500   58 54   10/  9/ 10 1021.6
SHELL BEACH      0500   56 55  260/  6/  7 1021.2

OFFSHORE STATIONS

STATION/POSITION TIME  TEMP    WIND        PRES    WAVE
                       AIR SEA DIR/SP/G            HT/PER
                 (UTC) (F)     (DEG/KT/KT) (MB)    (FT/S)
64 S DAUPHIN ISL 0429   67 66  320/ 16/ 17 1020.7    3/ 6

$$




USA.gov is the U.S. government's official web portal to all federal, state and local government web resources and services.